Wind_Speed
24 40 43 44 41 42 44 39 35 32 29 31 32 30 27 24 23 20 16 14 17 18 18 19 19 19 16 15 15 16 15 14 13 14 18 14 13 11 11 9 10 9 7
18 34 41 46 45 46 47 43 36 31 28 26 25 24 23 23 23 22 19 16 17 19 19 19 19 18 17 16 15 16 16 15 15 19 25 18 18 15 12 9 7 6 5
9 20 34 46 48 50 49 42 35 29 25 20 19 19 21 22 25 25 20 19 19 21 20 19 19 18 17 16 16 17 17 17 19 26 17 15 10 22 12 11 9 6 6
13 3 29 41 46 47 43 36 30 25 17 15 15 18 21 24 26 21 19 20 20 22 22 20 21 19 18 18 17 18 18 18 20 30 23 17 18 17 12 13 11 9 8
20 11 19 30 38 40 37 31 23 18 13 15 16 16 19 21 20 20 21 21 19 21 22 22 22 21 20 18 19 19 20 19 18 23 26 20 20 20 21 19 18 14 10
29 18 10 12 18 22 21 20 17 13 14 15 14 15 16 20 21 23 24 23 22 22 23 23 22 22 22 20 19 19 19 19 19 19 20 20 22 25 21 18 21 14 9
25 23 22 13 6 8 13 13 13 12 13 14 15 18 19 22 23 23 25 27 23 22 23 24 23 23 22 20 20 20 20 19 18 18 18 19 19 21 23 18 21 16 13
20 19 17 15 11 3 6 9 11 13 14 15 17 17 21 23 26 25 25 26 22 20 22 24 24 22 21 20 20 19 19 19 18 17 17 17 17 16 16 17 19 15 13
15 14 14 12 8 3 5 8 11 13 16 17 18 19 22 25 27 27 25 24 23 22 22 23 24 22 22 22 19 18 18 18 17 16 15 14 14 15 15 15 16 16 15
11 8 5 3 2 1 1 3 7 13 17 20 22 23 24 26 27 27 26 25 25 25 24 25 24 23 21 20 20 19 18 16 15 14 13 11 12 12 12 13 14 15 14
4 4 7 4 2 4 4 4 2 9 16 21 23 24 24 25 26 29 29 29 28 26 26 26 23 24 23 22 20 17 15 14 12 12 11 10 10 9 9 10 11 10 10
8 9 11 11 9 8 4 1 8 11 13 17 20 23 25 25 25 29 31 31 29 28 26 26 24 24 24 23 21 19 16 14 12 10 9 10 11 11 13 11 10 10 9
10 15 16 18 14 10 8 4 7 9 11 15 19 22 25 27 27 27 29 32 32 32 31 29 27 25 26 24 21 21 20 15 12 10 12 11 13 12 11 9 9 9 9
18 15 20 17 14 11 8 5 5 5 7 11 17 22 25 26 26 27 28 31 34 33 32 29 26 25 25 23 23 21 19 16 16 19 16 14 16 14 11 10 10 11 10
14 15 21 15 12 9 5 5 6 6 3 7 14 22 27 29 30 29 30 33 34 33 31 30 27 25 24 23 23 21 20 20 19 16 15 18 18 17 14 12 11 11 10
13 21 19 15 10 7 6 8 11 9 11 11 13 17 23 26 29 32 32 35 35 36 34 30 26 25 25 24 21 24 24 18 13 14 18 17 18 17 15 11 10 9 9
19 17 14 10 8 8 10 12 12 16 18 20 19 15 17 26 28 33 33 35 39 36 32 28 28 28 26 27 29 24 18 13 14 15 15 15 14 12 11 11 8 8 8
9 7 6 6 8 10 10 14 15 17 20 22 18 16 16 20 23 28 32 38 33 31 26 25 27 27 28 27 21 17 16 16 14 14 14 12 11 11 9 9 9 9 9
2 4 5 7 8 10 11 13 15 18 18 13 15 15 14 15 20 28 32 30 24 21 23 24 24 24 22 20 19 17 14 13 13 13 12 10 10 10 10 9 8 9 10
9 8 8 8 9 8 10 12 15 16 14 10 12 14 13 14 18 24 22 20 22 24 23 20 19 19 22 22 20 18 16 15 15 13 11 10 9 8 11 9 8 8 8
9 12 9 10 12 9 9 12 14 12 10 10 12 12 10 12 16 17 17 21 22 20 18 18 17 20 21 21 21 18 14 17 16 15 15 14 11 10 9 10 9 8 8
13 15 13 11 13 12 13 13 11 8 10 11 10 9 10 11 14 16 17 17 19 19 19 18 19 21 20 17 19 18 19 20 15 15 15 16 12 12 11 10 9 8 7
14 16 14 15 15 14 14 14 10 9 10 10 7 8 11 12 13 14 16 15 19 19 19 19 19 20 19 16 14 14 12 12 12 13 13 14 14 13 13 11 9 7 7
15 12 15 14 17 15 13 11 8 9 10 7 6 10 13 14 13 12 15 17 21 19 19 18 16 17 18 18 17 14 13 12 11 13 17 17 15 15 12 10 9 8 7
12 12 12 17 19 16 13 10 8 9 9 8 10 14 15 14 13 13 15 17 17 17 17 16 15 13 15 19 19 17 14 11 8 9 16 17 16 15 13 12 11 9 8
12 10 15 19 19 15 13 11 10 9 9 11 14 16 16 14 14 14 13 13 10 12 10 6 4 6 6 13 19 17 15 14 11 10 15 16 16 14 13 12 10 9 8
Wind_Direction
258 231 213 212 212 210 206 213 216 213 217 216 219 223 230 237 243 245 243 238 240 242 239 240 242 248 243 236 231 228 222 215 202 188 165 149 159 173 184 207 242 255 279
261 224 212 212 212 210 207 210 215 222 222 225 225 226 231 238 245 250 249 248 242 240 237 239 244 244 239 234 225 220 213 205 185 171 163 143 151 172 197 200 222 246 268
332 223 217 213 207 206 203 205 208 215 219 223 222 222 226 232 240 245 252 257 250 243 237 234 238 237 237 233 227 221 214 210 186 176 172 157 179 162 163 194 205 225 249
29 213 199 203 200 198 199 205 208 211 218 226 236 244 250 248 248 252 255 256 253 245 241 233 237 234 235 232 226 224 218 214 202 188 195 199 191 180 161 173 196 204 231
54 128 179 189 193 195 199 204 206 212 229 253 254 251 252 255 256 253 255 261 259 247 242 236 237 238 234 233 228 225 221 216 215 204 209 210 192 195 184 178 183 203 216
80 83 117 172 187 193 199 206 212 234 253 257 265 270 271 264 260 263 267 270 264 250 242 242 237 239 235 228 228 225 227 224 221 221 216 215 200 201 196 188 188 207 209
78 93 97 99 127 199 208 217 239 257 266 265 278 283 274 264 264 264 273 278 266 257 250 242 238 236 239 236 231 226 224 226 226 224 224 219 214 215 212 206 192 196 200
76 76 83 99 108 146 250 263 277 293 273 272 274 274 268 262 260 265 277 276 267 263 261 250 241 237 236 234 230 228 226 226 225 225 224 222 220 217 214 213 208 183 187
94 93 97 101 125 134 235 270 289 299 293 286 271 273 271 266 270 275 276 270 262 257 258 255 248 241 235 232 229 228 226 222 221 221 223 222 220 219 217 220 218 214 190
99 73 54 354 323 124 59 286 279 272 279 277 266 264 263 269 276 274 264 261 255 257 257 252 245 240 237 236 227 221 222 223 219 220 223 219 219 220 219 221 223 220 213
164 281 281 234 241 317 11 37 307 279 277 274 273 268 266 272 275 266 262 253 249 251 254 253 247 240 233 227 227 223 219 222 223 222 226 225 219 221 222 217 216 218 208
219 217 218 216 223 226 255 324 322 300 274 273 277 279 282 283 275 272 262 252 250 245 241 249 246 240 231 226 223 220 216 217 223 228 232 240 241 230 224 212 211 206 198
282 231 211 204 213 217 238 270 269 282 290 287 283 274 271 271 275 269 265 261 246 235 232 233 238 238 228 219 214 216 210 208 213 217 226 248 242 236 227 220 216 213 208
279 256 183 188 197 209 224 247 263 283 283 289 283 279 276 270 269 266 264 260 242 232 227 225 227 229 222 214 215 214 207 199 216 220 242 236 234 227 231 227 223 227 226
278 222 184 180 190 210 244 284 293 281 253 292 288 284 282 282 278 270 251 241 227 224 222 221 219 217 212 211 210 211 216 221 224 240 219 230 228 229 224 222 218 224 232
205 178 184 188 194 220 259 279 291 256 261 272 292 272 271 276 267 257 244 237 228 228 228 227 224 218 213 212 219 224 228 238 226 221 224 225 225 226 223 226 218 218 226
159 165 176 191 215 244 266 272 275 271 277 284 288 288 290 278 258 246 235 234 233 232 228 227 225 214 208 213 218 225 225 206 212 215 211 210 207 208 213 203 199 206 218
148 177 203 233 246 262 268 272 277 277 281 274 281 290 291 281 258 237 250 231 224 222 220 229 222 216 209 211 220 212 200 200 206 209 210 206 200 194 188 187 187 195 198
211 237 231 241 259 270 277 278 288 296 297 293 288 288 288 275 260 239 235 220 217 224 230 225 219 215 216 213 209 207 202 202 206 203 197 197 198 198 182 172 168 175 175
238 245 262 266 268 265 279 286 295 303 301 294 291 284 272 269 258 241 222 226 232 232 223 215 214 214 210 204 204 207 216 214 212 211 216 216 200 186 178 167 168 179 170
254 263 269 296 296 295 292 296 298 303 293 288 282 269 262 259 243 225 222 230 229 219 213 206 205 206 208 199 201 210 211 226 236 233 227 223 209 190 179 168 170 178 169
274 267 268 279 296 307 306 301 303 297 284 281 268 263 247 238 229 227 228 229 223 212 204 200 194 196 201 204 206 215 226 238 233 227 209 204 194 183 179 176 174 174 169
273 254 267 282 302 304 299 297 303 285 285 288 271 248 233 227 227 236 231 216 213 209 202 197 194 193 199 206 216 219 210 196 193 197 190 184 183 178 175 179 176 172 156
255 259 260 281 297 295 294 295 287 285 278 271 250 231 228 229 230 230 230 215 211 205 207 203 199 196 202 206 205 205 199 187 184 186 186 183 181 179 182 176 173 169 167
238 245 275 283 291 288 289 276 264 270 261 242 229 222 217 224 226 218 223 221 222 224 219 218 216 211 220 210 214 216 217 213 210 206 188 188 185 182 184 184 182 179 176
239 246 266 273 279 282 281 274 277 271 248 227 221 217 216 212 214 210 204 222 229 223 215 205 211 200 196 220 213 211 210 215 220 205 193 190 188 189 187 186 184 182 182
Height
1463 1464 1467 1472 1475 1480 1484 1486 1491 1495 1498 1500 1502 1508 1513 1517 1518 1519 1521 1521 1521 1523 1523 1524 1523 1524 1525 1526 1526 1527 1529 1529 1531 1533 1536 1539 1542 1544 1544 1544 1542 1542 1542
1459 1462 1464 1468 1470 1471 1478 1483 1487 1494 1499 1502 1503 1505 1508 1511 1513 1514 1516 1519 1519 1519 1520 1520 1521 1521 1523 1523 1523 1522 1525 1526 1529 1531 1533 1537 1541 1540 1541 1541 1541 1540 1541
1458 1459 1463 1464 1466 1469 1475 1482 1487 1493 1497 1501 1504 1506 1506 1507 1508 1509 1512 1515 1516 1516 1516 1518 1517 1518 1520 1520 1521 1521 1522 1524 1525 1528 1528 1533 1534 1537 1540 1539 1538 1538 1538
1457 1455 1458 1463 1467 1473 1480 1484 1489 1495 1500 1501 1503 1503 1503 1504 1505 1508 1510 1510 1512 1513 1512 1514 1514 1515 1516 1517 1518 1519 1520 1520 1521 1522 1522 1523 1523 1528 1535 1536 1536 1536 1535
1461 1461 1464 1464 1468 1473 1480 1486 1494 1498 1499 1499 1500 1501 1501 1502 1505 1506 1505 1508 1509 1510 1512 1511 1511 1512 1513 1514 1515 1516 1516 1518 1520 1521 1521 1520 1520 1521 1522 1526 1529 1531 1532
1465 1467 1472 1474 1479 1483 1489 1493 1497 1499 1498 1498 1498 1499 1500 1500 1502 1505 1506 1506 1506 1506 1507 1509 1510 1512 1510 1509 1511 1513 1514 1514 1516 1517 1517 1518 1519 1519 1519 1519 1524 1526 1529
1475 1472 1470 1475 1484 1489 1493 1496 1498 1497 1497 1497 1497 1498 1498 1498 1499 1502 1503 1504 1505 1505 1504 1505 1506 1508 1510 1511 1509 1509 1510 1511 1512 1513 1514 1515 1515 1517 1518 1519 1519 1521 1524
1480 1481 1484 1484 1486 1492 1495 1496 1496 1495 1496 1497 1497 1497 1498 1497 1499 1498 1499 1500 1500 1503 1503 1503 1502 1505 1508 1508 1508 1508 1508 1508 1509 1509 1510 1511 1511 1513 1515 1517 1516 1518 1519
1485 1485 1487 1489 1489 1491 1495 1497 1496 1495 1495 1495 1496 1496 1497 1496 1496 1495 1496 1497 1498 1498 1499 1500 1502 1502 1504 1504 1505 1506 1505 1506 1506 1507 1508 1509 1510 1509 1510 1513 1514 1515 1515
1486 1486 1488 1489 1487 1489 1491 1492 1493 1493 1495 1495 1494 1493 1494 1494 1493 1491 1491 1491 1493 1494 1496 1497 1497 1498 1500 1504 1502 1502 1503 1504 1504 1505 1507 1507 1508 1509 1508 1509 1511 1513 1510
1484 1484 1484 1484 1484 1485 1486 1488 1490 1491 1491 1491 1491 1491 1491 1490 1488 1488 1486 1487 1486 1488 1491 1493 1494 1495 1494 1498 1501 1500 1501 1502 1503 1504 1505 1506 1507 1507 1508 1506 1508 1509 1508
1482 1481 1481 1481 1480 1482 1482 1484 1486 1486 1487 1487 1487 1486 1486 1485 1484 1484 1483 1482 1480 1483 1485 1488 1489 1490 1492 1494 1495 1496 1498 1501 1501 1502 1504 1505 1506 1506 1506 1504 1506 1506 1509
1482 1480 1478 1477 1478 1478 1479 1482 1483 1483 1483 1482 1480 1480 1479 1479 1478 1479 1479 1478 1478 1477 1479 1483 1484 1485 1487 1491 1492 1493 1492 1494 1499 1501 1502 1501 1503 1503 1504 1502 1504 1505 1508
1478 1475 1475 1475 1476 1477 1478 1478 1478 1477 1476 1476 1474 1472 1470 1471 1472 1472 1472 1472 1473 1474 1476 1478 1480 1481 1484 1486 1487 1492 1492 1492 1495 1497 1498 1498 1500 1501 1502 1500 1502 1504 1505
1469 1467 1470 1472 1473 1474 1473 1472 1472 1471 1470 1470 1468 1466 1467 1468 1468 1467 1467 1467 1467 1469 1472 1473 1473 1476 1480 1482 1486 1490 1491 1490 1492 1494 1496 1496 1498 1499 1499 1499 1500 1502 1504
1463 1466 1467 1468 1468 1469 1468 1466 1466 1466 1466 1465 1463 1462 1463 1461 1460 1460 1460 1462 1462 1463 1466 1468 1470 1472 1476 1479 1485 1487 1487 1489 1490 1492 1493 1494 1496 1497 1496 1498 1498 1499 1502
1465 1466 1466 1466 1466 1465 1466 1464 1460 1461 1460 1459 1458 1457 1455 1455 1455 1454 1455 1457 1456 1458 1462 1465 1467 1469 1472 1475 1477 1480 1485 1486 1489 1490 1491 1492 1494 1495 1494 1496 1495 1498 1501
1467 1468 1467 1465 1463 1463 1459 1460 1457 1456 1454 1454 1453 1452 1450 1450 1450 1452 1454 1453 1453 1456 1459 1463 1466 1468 1470 1472 1476 1477 1482 1482 1487 1489 1491 1492 1493 1493 1493 1494 1495 1497 1499
1464 1464 1464 1464 1461 1459 1457 1455 1452 1450 1448 1448 1449 1447 1446 1446 1447 1448 1451 1452 1456 1458 1459 1462 1464 1467 1469 1472 1475 1478 1480 1482 1486 1489 1489 1490 1492 1492 1493 1493 1494 1497 1499
1461 1460 1459 1456 1456 1452 1452 1450 1448 1444 1444 1445 1446 1446 1444 1444 1444 1446 1449 1453 1455 1456 1458 1460 1464 1466 1468 1470 1474 1477 1480 1482 1485 1487 1488 1489 1491 1492 1493 1492 1494 1498 1500
1458 1456 1455 1453 1452 1448 1447 1446 1442 1441 1444 1443 1443 1444 1443 1443 1444 1445 1448 1450 1453 1456 1459 1460 1463 1466 1467 1470 1474 1477 1478 1483 1484 1486 1487 1488 1489 1492 1493 1493 1495 1499 1500
1454 1452 1452 1449 1448 1444 1442 1442 1440 1440 1442 1440 1440 1442 1442 1442 1444 1446 1447 1449 1452 1455 1458 1459 1462 1465 1468 1470 1473 1474 1478 1481 1482 1484 1485 1488 1489 1492 1493 1494 1497 1499 1500
1451 1449 1448 1447 1445 1442 1440 1438 1437 1440 1439 1438 1439 1442 1443 1444 1444 1446 1447 1447 1452 1454 1457 1459 1461 1464 1468 1469 1470 1472 1477 1479 1481 1484 1485 1486 1490 1492 1493 1495 1497 1499 1499
1448 1448 1445 1444 1444 1441 1437 1434 1437 1437 1437 1436 1438 1440 1443 1443 1443 1445 1448 1448 1451 1453 1456 1458 1461 1464 1467 1468 1470 1472 1476 1479 1481 1482 1484 1486 1489 1491 1493 1495 1497 1498 1500
1441 1441 1443 1443 1441 1439 1435 1435 1435 1434 1434 1435 1436 1437 1439 1441 1443 1445 1448 1450 1452 1454 1456 1458 1461 1463 1465 1467 1471 1474 1476 1479 1481 1482 1484 1486 1489 1491 1493 1496 1498 1499 1500
1437 1433 1437 1438 1438 1436 1434 1434 1433 1432 1433 1432 1433 1434 1437 1438 1441 1445 1447 1452 1454 1455 1456 1459 1462 1464 1465 1467 1470 1473 1476 1479 1481 1482 1484 1486 1489 1491 1493 1495 1497 1499 1500